ProjectID,Date,Electric Generation,Electric Utility Import,Facility Electric Load
,YYYY-MM-DD,kW,kW,kW
338,2016-05-17,4.9975,,26.15083333333333
338,2016-05-18,38.03458333333333,,139.73916666666668
338,2016-05-19,41.5175,,171.60958333333335
338,2016-05-20,50.67624999999999,,218.26291666666668
338,2016-05-21,15.62416666666667,,65.39208333333333
338,2016-05-22,27.686541666666667,,115.65654166666667
338,2016-05-23,48.716,,261.231
338,2016-05-24,27.019583333333326,,150.33208333333332
338,2016-05-25,50.84729166666668,,260.741875
338,2016-05-26,48.52937500000001,,253.81395833333335
338,2016-05-27,41.731750000000005,,217.4859166666667
338,2016-05-28,47.51270833333334,,247.2247916666667
338,2016-05-29,48.72070833333334,,255.39362500000001
338,2016-05-30,26.05195833333333,,129.18404166666664
338,2016-05-31,47.205958333333335,,245.08470833333337
338,2016-06-01,50.57904166666666,,273.3627916666667
338,2016-06-02,39.91208333333333,,206.60166666666666
338,2016-06-03,21.077125,,113.57212500000001
338,2016-06-04,40.669041666666665,,217.47570833333336
338,2016-06-05,14.966833333333332,,79.96600000000001
338,2016-06-06,45.857500000000016,,235.34708333333336
338,2016-06-07,39.56741666666667,,210.11283333333336
338,2016-06-08,24.059208333333334,,131.56170833333334
338,2016-06-09,55.57204166666666,,262.08995833333336
338,2016-06-10,54.85154166666667,,296.99029166666674
338,2016-06-11,39.64487499999999,,208.88112499999997
338,2016-06-12,51.55733333333334,,276.83025
338,2016-06-13,49.725,,269.6420833333334
338,2016-06-14,54.30383333333335,,292.3438333333334
338,2016-06-15,52.83566666666667,,284.159
338,2016-06-16,18.125833333333333,,96.91916666666668
338,2016-06-17,50.27125000000001,,269.9275
338,2016-06-18,50.68333333333333,,271.35833333333335
338,2016-06-19,51.551000000000016,,277.04058333333336
338,2016-06-20,48.59775,,260.9315
338,2016-06-21,41.54516666666667,,222.89516666666665
338,2016-06-22,46.959499999999984,,250.97491666666664
338,2016-06-23,23.667791666666663,,125.47904166666666
338,2016-06-24,48.695,,261.52625
338,2016-06-25,51.00883333333332,,273.2525833333333
338,2016-06-26,50.126541666666675,,267.258625
338,2016-06-27,43.861625,,236.26537500000006
338,2016-06-28,20.696250000000003,,108.36208333333335
338,2016-06-29,41.04874999999999,,217.0629166666666
338,2016-06-30,46.28404166666667,,251.78487499999997
338,2016-07-01,34.08679166666666,,178.8634583333333
338,2016-07-02,47.10749999999999,,251.71666666666664
338,2016-07-03,37.29833333333334,,198.59749999999997
338,2016-07-04,45.42666666666667,,243.7329166666667
338,2016-07-05,28.808833333333336,,152.33758333333333
338,2016-07-06,45.34808333333333,,238.9635
338,2016-07-07,36.911791666666666,,198.27720833333333
338,2016-07-08,39.079166666666666,,210.1875
338,2016-07-09,12.73625,,67.72541666666666
338,2016-07-10,4.245416666666666,,23.672083333333333
338,2016-07-11,0.0,,0.0
338,2016-07-12,0.0,,0.0
338,2016-07-13,0.0,,0.0
338,2016-07-14,0.0,,0.0
338,2016-07-15,0.0,,0.0
338,2016-07-16,0.0,,0.0
338,2016-07-17,0.0,,0.0
338,2016-07-18,0.0,,0.0
338,2016-07-19,41.959999999999994,,220.41708333333332
338,2016-07-20,48.14291666666667,,255.89749999999998
338,2016-07-21,42.52645833333333,,216.8314583333333
338,2016-07-22,44.759375000000006,,237.01937500000003
338,2016-07-23,48.438750000000006,,255.85666666666668
338,2016-07-24,44.74875,,238.47708333333333
338,2016-07-25,30.427499999999995,,158.8225
338,2016-07-26,45.85791666666666,,232.8604166666667
338,2016-07-27,45.588750000000005,,238.59250000000003
338,2016-07-28,38.76374999999999,,206.25875
338,2016-07-29,21.065,,123.79208333333332
338,2016-07-30,29.058749999999993,,152.1183333333333
338,2016-07-31,25.53583333333333,,130.64249999999998
338,2016-08-01,25.2675,,129.83375
338,2016-08-02,23.693749999999994,,122.14750000000001
338,2016-08-03,50.559999999999995,,267.5416666666667
338,2016-08-04,49.10874999999999,,262.36791666666664
338,2016-08-05,37.20529166666666,,192.54820833333332
338,2016-08-06,28.836791666666667,,149.91720833333332
338,2016-08-07,47.91983333333334,,251.40275000000003
338,2016-08-08,36.799416666666666,,195.52275000000003
338,2016-08-09,47.71533333333332,,253.45408333333333
338,2016-08-10,22.86458333333333,,117.02666666666666
338,2016-08-11,33.482499999999995,,175.7745833333333
338,2016-08-12,37.47908333333333,,195.11033333333333
338,2016-08-13,36.72962499999999,,194.89254166666666
338,2016-08-14,41.26916666666666,,213.57875
338,2016-08-15,34.875833333333325,,183.9745833333333
338,2016-08-16,33.40345833333333,,174.16804166666668
338,2016-08-17,44.15320833333333,,233.17695833333337
338,2016-08-18,26.679458333333333,,139.90070833333334
338,2016-08-19,27.839291666666657,,151.902625
338,2016-08-20,42.57416666666666,,226.21833333333333
338,2016-08-21,31.66520833333333,,169.02145833333333
338,2016-08-22,46.90604166666665,,246.38437499999995
338,2016-08-23,46.0925,,244.43791666666667
338,2016-08-24,44.386875,,235.25145833333335
338,2016-08-25,33.97479166666666,,180.76729166666667
338,2016-08-26,37.33291666666667,,185.84458333333333
338,2016-08-27,41.21562499999999,,219.17020833333333
338,2016-08-28,42.933541666666656,,227.31937499999998
338,2016-08-29,41.82125,,219.86916666666664
338,2016-08-30,42.64624999999999,,226.11333333333334
338,2016-08-31,31.051249999999996,,161.17499999999998
338,2016-09-01,18.176249999999996,,93.49583333333332
338,2016-09-02,39.467499999999994,,209.28999999999996
338,2016-09-03,27.707083333333333,,144.67416666666668
338,2016-09-04,42.85208333333333,,226.28458333333333
338,2016-09-05,28.122083333333325,,147.54874999999998
338,2016-09-06,20.462500000000002,,105.36625000000001
338,2016-09-07,23.57291666666666,,121.93416666666666
338,2016-09-08,32.82708333333333,,173.43749999999997
338,2016-09-09,25.260833333333327,,133.4783333333333
338,2016-09-10,30.724583333333328,,163.48
338,2016-09-11,34.25958333333333,,176.38625
338,2016-09-12,41.012499999999996,,218.35249999999996
338,2016-09-13,36.71041666666667,,195.27166666666665
338,2016-09-14,37.59541666666666,,199.36874999999998
338,2016-09-15,40.32874999999999,,213.98583333333335
338,2016-09-16,40.27316666666666,,211.54691666666662
338,2016-09-17,36.59641666666666,,194.15016666666668
338,2016-09-18,21.149166666666666,,110.41833333333334
338,2016-09-19,5.912500000000001,,32.65833333333333
338,2016-09-20,26.095416666666654,,137.0775
338,2016-09-21,29.516666666666662,,154.85458333333332
338,2016-09-22,37.758749999999985,,199.55041666666662
338,2016-09-23,35.726333333333336,,189.13633333333334
338,2016-09-24,25.40866666666666,,130.8645
338,2016-09-25,38.51291666666666,,204.13625000000002
338,2016-09-26,33.062374999999996,,175.27029166666665
338,2016-09-27,26.571374999999993,,138.74012499999998
338,2016-09-28,15.38875,,82.07333333333332
338,2016-09-29,6.4262500000000005,,33.799166666666665
338,2016-09-30,9.395833333333334,,49.138333333333335
338,2016-10-01,7.114583333333335,,37.345
338,2016-10-02,9.76,,51.12083333333332
338,2016-10-03,20.389999999999997,,107.29333333333334
338,2016-10-04,15.952499999999993,,82.8425
338,2016-10-05,34.138749999999995,,180.36958333333334
338,2016-10-06,31.70541666666666,,168.12666666666667
338,2016-10-07,33.10874999999999,,175.45291666666665
338,2016-10-08,7.939166666666668,,41.634166666666665
338,2016-10-09,4.9783333333333335,,25.9
338,2016-10-10,35.12291666666666,,182.98999999999998
338,2016-10-11,32.99166666666666,,175.30708333333334
338,2016-10-12,31.657916666666665,,167.59375
338,2016-10-13,17.16208333333333,,91.99749999999999
338,2016-10-14,31.649583333333325,,168.65833333333333
338,2016-10-15,30.643749999999997,,163.10375
338,2016-10-16,24.077499999999997,,127.91583333333334
338,2016-10-17,24.300416666666667,,129.39
338,2016-10-18,26.78791666666666,,142.295
338,2016-10-19,21.72083333333332,,114.94666666666664
338,2016-10-20,11.377916666666664,,60.26833333333333
338,2016-10-21,9.680833333333334,,50.39375
338,2016-10-22,5.461666666666663,,31.06249999999999
338,2016-10-23,27.929583333333326,,147.63
338,2016-10-24,19.865416666666665,,106.46541666666667
338,2016-10-25,14.784999999999995,,77.86083333333332
338,2016-10-26,25.98958333333333,,141.3216666666667
338,2016-10-27,2.692916666666667,,14.0125
338,2016-10-28,19.306666666666658,,99.4175
338,2016-10-29,20.856666666666666,,110.06416666666667
338,2016-10-30,20.16458333333333,,106.47708333333334
338,2016-10-31,26.237499999999994,,139.96249999999998
338,2016-11-01,24.340833333333325,,129.71499999999997
338,2016-11-02,22.62249999999999,,119.72666666666663
338,2016-11-03,9.3225,,48.896666666666675
338,2016-11-04,23.49624999999999,,125.54916666666666
338,2016-11-05,23.22916666666666,,124.09458333333333
338,2016-11-06,22.003749999999997,,117.89625
338,2016-11-07,23.152083333333334,,123.89541666666669
338,2016-11-08,21.812916666666663,,116.52125
338,2016-11-09,0.3283333333333333,,1.6233333333333333
338,2016-11-10,22.132874999999988,,118.35037499999999
338,2016-11-11,20.60958333333333,,110.07708333333332
338,2016-11-12,22.365416666666658,,119.56750000000001
338,2016-11-13,21.309166666666666,,111.84708333333333
338,2016-11-14,18.76791666666666,,100.92333333333335
338,2016-11-15,4.115000000000001,,20.96875
338,2016-11-16,18.809999999999995,,103.28374999999998
338,2016-11-17,19.917916666666663,,110.29625
338,2016-11-18,19.38541666666666,,104.05083333333332
338,2016-11-19,19.258749999999992,,103.46124999999998
338,2016-11-20,7.819166666666668,,42.01625
338,2016-11-21,7.120416666666666,,38.79666666666666
338,2016-11-22,16.172499999999996,,88.63666666666667
338,2016-11-23,19.68874999999999,,109.41375
338,2016-11-24,5.957083333333336,,31.322083333333335
338,2016-11-25,8.387916666666667,,45.568749999999994
338,2016-11-26,11.447916666666663,,62.63166666666666
338,2016-11-27,17.218749999999996,,92.40833333333332
338,2016-11-28,17.096249999999994,,91.35624999999999
338,2016-11-29,0.9083333333333335,,4.6466666666666665
338,2016-11-30,2.5379166666666673,,13.188333333333334
338,2016-12-01,13.745416666666664,,76.79333333333331
338,2016-12-02,16.415416666666662,,90.77291666666665
338,2016-12-03,16.64208333333333,,92.71416666666666
338,2016-12-04,16.56791666666666,,91.90291666666666
338,2016-12-05,14.11416666666666,,74.45708333333332
338,2016-12-06,7.6125,,40.12166666666667
338,2016-12-07,5.522500000000001,,28.815833333333337
338,2016-12-08,8.134166666666667,,42.72625000000001
338,2016-12-09,14.91958333333333,,83.14291666666666
338,2016-12-10,14.257083333333325,,77.83208333333332
338,2016-12-11,8.304583333333333,,45.49708333333333
338,2016-12-12,4.529583333333334,,23.698749999999997
338,2016-12-13,13.387083333333328,,74.23083333333332
338,2016-12-14,16.072499999999994,,89.58208333333332
338,2016-12-15,10.460833333333332,,58.79458333333333
338,2016-12-16,15.717083333333326,,86.98124999999999
338,2016-12-17,0.32958333333333334,,1.6558333333333333
338,2016-12-18,4.12125,,21.47375
338,2016-12-19,16.46083333333333,,91.15458333333333
338,2016-12-20,16.355416666666667,,91.38708333333332
338,2016-12-21,9.817499999999997,,54.32458333333333
338,2016-12-22,10.529583333333333,,57.894999999999996
338,2016-12-23,15.224166666666667,,78.77
338,2016-12-24,3.264583333333334,,17.019166666666667
338,2016-12-25,16.31708333333333,,74.24
338,2016-12-26,3.49875,,14.337916666666665
338,2016-12-27,9.272083333333331,,37.91
338,2016-12-28,6.994166666666666,,33.57625
338,2016-12-29,1.6529166666666668,,8.536666666666667
338,2016-12-30,11.612499999999992,,64.12333333333332
338,2016-12-31,13.953749999999994,,76.89333333333333
338,2017-01-01,16.62625,,92.83458333333334
338,2017-01-02,2.6337500000000005,,13.755833333333333
338,2017-01-03,2.15,,11.160833333333333
338,2017-01-04,9.650416666666667,,52.426666666666655
338,2017-01-05,12.271666666666661,,65.82749999999999
338,2017-01-06,4.130416666666666,,21.156666666666666
338,2017-01-07,0.18250000000000002,,0.8554166666666667
338,2017-01-08,0.11333333333333329,,0.7079166666666666
338,2017-01-09,0.42541666666666655,,4.385000000000001
338,2017-01-10,0.692916666666667,,6.19125
338,2017-01-11,12.34583333333333,,63.62916666666666
338,2017-01-12,14.908749999999996,,76.46375
338,2017-01-13,18.071666666666665,,100.87666666666665
338,2017-01-14,8.74625,,48.002500000000005
338,2017-01-15,10.2275,,53.736666666666665
338,2017-01-16,19.377499999999994,,103.64499999999998
338,2017-01-17,2.55625,,13.274583333333336
338,2017-01-18,3.91,,19.458750000000002
338,2017-01-19,16.642499999999995,,87.06708333333333
338,2017-01-20,6.579166666666667,,33.61541666666666
338,2017-01-21,6.107083333333333,,32.398333333333326
338,2017-01-22,4.96875,,23.75791666666667
338,2017-01-23,2.2987499999999996,,11.805833333333332
338,2017-01-24,2.808333333333334,,14.042916666666667
338,2017-01-25,21.02708333333333,,112.73500000000001
338,2017-01-26,11.744166666666663,,61.032083333333325
338,2017-01-27,11.599999999999994,,63.80958333333332
338,2017-01-28,9.360833333333334,,51.64375
338,2017-01-29,20.621625,,115.140375
338,2017-01-30,18.61670833333333,,103.25212499999999
338,2017-01-31,3.1858333333333335,,17.3125
338,2017-02-01,11.629999999999995,,61.83875
338,2017-02-02,16.84083333333333,,93.82083333333333
338,2017-02-03,17.604166666666668,,97.84541666666667
338,2017-02-04,25.562958333333338,,143.017125
338,2017-02-05,12.155708333333335,,67.27862499999999
338,2017-02-06,24.329166666666655,,135.89166666666665
338,2017-02-07,4.195833333333334,,22.125833333333336
338,2017-02-08,20.148333333333323,,107.43083333333333
338,2017-02-09,0.03870833333333335,,0.4887083333333334
338,2017-02-10,2.9045833333333335,,22.42166666666667
338,2017-02-11,3.8312500000000003,,25.388333333333332
338,2017-02-12,0.7816666666666668,,5.314583333333334
338,2017-02-13,5.609708333333335,,39.593875000000004
338,2017-02-14,12.915291666666663,,86.53362499999999
338,2017-02-15,12.497458333333329,,81.179125
338,2017-02-16,20.487499999999994,,129.8420833333333
338,2017-02-17,27.092916666666657,,163.96958333333333
338,2017-02-18,25.46212499999999,,142.218375
338,2017-02-19,22.968333333333323,,124.93333333333332
338,2017-02-20,29.900416666666658,,162.34625
338,2017-02-21,24.255833333333328,,132.21374999999998
338,2017-02-22,16.511249999999997,,88.61541666666668
338,2017-02-23,16.559583333333325,,88.51291666666665
338,2017-02-24,24.190416666666668,,131.62041666666664
338,2017-02-25,27.332916666666662,,147.47625
338,2017-02-26,28.804583333333326,,159.41166666666663
338,2017-02-27,25.19291666666666,,139.5533333333333
338,2017-02-28,26.03824999999999,,144.18741666666665
338,2017-03-01,10.728,,56.76258333333333
338,2017-03-02,36.471541666666674,,201.906125
338,2017-03-03,32.13591666666667,,178.60925
338,2017-03-04,29.04875,,163.3175
338,2017-03-05,38.91208333333333,,216.4625
338,2017-03-06,34.18416666666666,,189.9154166666667
338,2017-03-07,9.937499999999998,,52.38666666666667
338,2017-03-08,30.863749999999992,,178.05416666666667
338,2017-03-09,31.493333333333336,,198.62
338,2017-03-10,0.6454166666666666,,3.2791666666666663
338,2017-03-11,2.7520833333333337,,14.008333333333333
338,2017-03-12,6.039583333333334,,25.713333333333335
338,2017-03-13,23.78666666666666,,113.54208333333334
338,2017-03-14,0.02416666666666668,,0.19625
338,2017-03-15,0.0970833333333333,,1.302916666666667
338,2017-03-16,0.3904166666666666,,4.930416666666666
338,2017-03-17,1.2275,,14.969583333333333
338,2017-03-18,0.4233333333333333,,4.885
338,2017-03-19,10.181666666666667,,76.90291666666666
338,2017-03-20,25.345416666666654,,180.41333333333333
338,2017-03-21,27.187916666666663,,165.14624999999998
338,2017-03-22,37.44291666666666,,233.04041666666666
338,2017-03-23,37.05125,,233.52499999999998
338,2017-03-24,17.219999999999995,,104.73541666666665
338,2017-03-25,9.5325,,57.119166666666665
338,2017-03-26,7.1329166666666675,,43.072916666666664
338,2017-03-27,13.608749999999993,,81.50291666666665
338,2017-03-28,4.802916666666667,,28.383333333333333
338,2017-03-29,34.859583333333326,,211.35958333333332
338,2017-03-30,26.890416666666663,,168.11208333333335
338,2017-03-31,4.17375,,24.419583333333335
338,2017-04-01,15.805833333333327,,95.34875
338,2017-04-02,37.57749999999999,,184.2841666666667
338,2017-04-03,30.400416666666672,,152.89541666666668
338,2017-04-04,13.266666666666667,,68.90666666666667
338,2017-04-05,28.48912499999999,,165.902875
338,2017-04-06,4.535,,25.36541666666667
338,2017-04-07,15.58458333333333,,92.88166666666666
338,2017-04-08,39.83374999999999,,251.95833333333334
338,2017-04-09,39.57999999999999,,248.10999999999993
338,2017-04-10,37.37291666666666,,235.01458333333332
338,2017-04-11,36.253750000000004,,227.39249999999998
338,2017-04-12,21.108749999999997,,126.53
338,2017-04-13,34.80958333333333,,219.06291666666667
338,2017-04-14,31.592916666666657,,197.98999999999998
338,2017-04-15,20.65833333333333,,126.47249999999998
338,2017-04-16,34.135416666666664,,162.15166666666667
338,2017-04-17,22.790416666666662,,105.81833333333333
338,2017-04-18,41.25249999999999,,193.76166666666668
338,2017-04-19,26.105375,,123.422875
338,2017-04-20,26.103875,,135.66429166666666
338,2017-04-21,12.474458333333331,,65.957375
338,2017-04-22,11.254583333333334,,59.028333333333336
338,2017-04-23,42.45374999999999,,186.70791666666668
338,2017-04-24,16.295416666666664,,76.16208333333333
338,2017-04-25,7.758750000000002,,39.35125
338,2017-04-26,11.707625,,61.12179166666667
338,2017-04-27,32.11945833333333,,187.48445833333335
338,2017-04-28,39.01291666666666,,231.80583333333334
338,2017-04-29,34.045,,198.63666666666668
338,2017-04-30,16.462916666666665,,79.02583333333332
338,2017-05-01,29.541249999999994,,138.39166666666665
338,2017-05-02,35.44958333333332,,200.74583333333334
338,2017-05-03,34.992916666666666,,212.86833333333334
338,2017-05-04,40.074999999999996,,243.38291666666666
338,2017-05-05,6.045833333333334,,34.08958333333333
338,2017-05-06,22.077916666666667,,121.58958333333335
338,2017-05-07,2.200416666666667,,12.17
338,2017-05-08,13.229999999999999,,70.11583333333334
338,2017-05-09,39.074999999999996,,227.47291666666666
338,2017-05-10,28.329583333333332,,166.14625
338,2017-05-11,27.661249999999992,,157.07583333333335
338,2017-05-12,32.865833333333335,,190.86541666666665
338,2017-05-13,7.257083333333334,,40.89208333333334
338,2017-05-14,1.0708333333333335,,6.968333333333334
338,2017-05-15,16.706249999999994,,96.73583333333332
338,2017-05-16,38.7975,,225.46124999999998
338,2017-05-17,41.37166666666666,,242.87083333333334
338,2017-05-18,38.51083333333333,,225.83458333333334
338,2017-05-19,40.20208333333333,,235.77250000000004
338,2017-05-20,14.838333333333333,,83.67083333333333
338,2017-05-21,43.35541666666668,,201.07125000000002
338,2017-05-22,5.970833333333332,,26.98125
338,2017-05-23,22.645,,102.41833333333334
338,2017-05-24,28.705833333333327,,154.29708333333332
338,2017-05-25,9.488333333333332,,53.405
338,2017-05-26,0.8404166666666666,,4.509166666666666
338,2017-05-27,0.0,,0.0
338,2017-05-28,0.0,,0.0
338,2017-05-29,0.0,,0.0
338,2017-05-30,6.309999999999999,,31.991666666666664
338,2017-05-31,39.397083333333335,,197.33333333333331
338,2017-06-01,46.272083333333335,,231.56083333333333
338,2017-06-02,48.264166666666675,,246.77375
338,2017-06-03,40.232499999999995,,203.18624999999997
338,2017-06-04,4.990833333333334,,23.842916666666667
338,2017-06-05,13.08708333333333,,66.86916666666666
338,2017-06-06,12.210541666666662,,60.581374999999994
338,2017-06-07,37.43029166666667,,191.60320833333333
338,2017-06-08,35.45749999999999,,177.98791666666665
338,2017-06-09,47.396875,,238.95979166666666
338,2017-06-10,45.99270833333333,,237.21729166666668
338,2017-06-11,47.71874999999999,,244.33791666666667
338,2017-06-12,47.607499999999995,,239.30958333333334
338,2017-06-13,45.34166666666666,,233.2175
338,2017-06-14,39.655458333333335,,198.662125
338,2017-06-15,47.0325,,239.45541666666668
338,2017-06-16,17.009999999999998,,86.14708333333333
338,2017-06-17,19.0825,,103.96541666666667
338,2017-06-18,32.09875,,151.00666666666666
338,2017-06-19,30.872499999999988,,141.63875
338,2017-06-20,43.06791666666667,,252.13083333333333
338,2017-06-21,35.68749999999999,,210.4425
338,2017-06-22,41.933749999999996,,248.68416666666667
338,2017-06-23,22.023749999999993,,125.08958333333332
338,2017-06-24,38.019999999999996,,212.24791666666667
338,2017-06-25,35.727916666666665,,204.29291666666666
338,2017-06-26,37.40208333333333,,218.45541666666665
338,2017-06-27,32.600833333333334,,185.69208333333333
338,2017-06-28,39.80208333333333,,228.52416666666667
338,2017-06-29,40.99458333333333,,230.26791666666665
338,2017-06-30,46.376208333333345,,239.61204166666664
338,2017-07-01,30.121833333333328,,153.92641666666665
338,2017-07-02,47.17275000000001,,238.72108333333335
338,2017-07-03,42.51466666666666,,218.78425
338,2017-07-04,37.64904166666667,,193.768625
338,2017-07-05,43.44045833333333,,221.54504166666666
338,2017-07-06,24.620833333333337,,127.11041666666668
338,2017-07-07,23.3325,,133.03958333333333
338,2017-07-08,37.08208333333334,,216.37625
338,2017-07-09,39.006249999999994,,229.75249999999997
338,2017-07-10,35.88333333333333,,209.86125
338,2017-07-11,30.007500000000004,,174.2904166666667
338,2017-07-12,32.95833333333333,,190.88
338,2017-07-13,24.92083333333333,,145.44166666666666
338,2017-07-14,8.242500000000001,,46.52375000000001
338,2017-07-15,31.943750000000005,,187.71916666666664
338,2017-07-16,40.00541666666667,,235.74791666666667
338,2017-07-17,38.05958333333333,,222.5404166666667
338,2017-07-18,38.55916666666668,,226.2545833333334
338,2017-07-19,38.15208333333332,,224.9925
338,2017-07-20,32.61708333333333,,194.8120833333333
338,2017-07-21,37.040416666666665,,219.76458333333332
338,2017-07-22,33.0825,,195.04666666666665
338,2017-07-23,24.514166666666668,,111.77958333333333
338,2017-07-24,19.852916666666662,,109.89041666666665
338,2017-07-25,14.962083333333332,,85.64291666666666
338,2017-07-26,41.885416666666664,,245.35708333333332
338,2017-07-27,18.36958333333333,,106.24791666666665
338,2017-07-28,29.556250000000002,,172.68083333333334
338,2017-07-29,21.43583333333333,,122.91791666666666
338,2017-07-30,40.6575,,237.63749999999996
338,2017-07-31,34.864583333333336,,206.55625
338,2017-08-01,34.88041666666666,,205.74125000000004
338,2017-08-02,18.775833333333328,,107.17708333333333
338,2017-08-03,38.846250000000005,,205.17583333333334
338,2017-08-04,41.62624999999999,,203.89083333333332
338,2017-08-05,31.269999999999992,,161.25333333333333
338,2017-08-06,32.622499999999995,,173.885
338,2017-08-07,5.03875,,25.74625
338,2017-08-08,27.01708333333333,,145.81875000000002
338,2017-08-09,43.18708333333334,,232.62041666666667
338,2017-08-10,42.81666666666667,,231.9441666666667
338,2017-08-11,39.52041666666666,,212.79291666666666
338,2017-08-12,22.498749999999998,,119.6975
338,2017-08-13,43.740833333333335,,237.4075
338,2017-08-14,24.154166666666658,,124.79541666666665
338,2017-08-15,10.640416666666667,,55.40666666666667
338,2017-08-16,40.10291666666665,,205.57208333333332
338,2017-08-17,41.91291666666665,,219.8791666666667
338,2017-08-18,13.435833333333328,,65.66
338,2017-08-19,38.90749999999999,,205.405
338,2017-08-20,41.88458333333333,,221.32666666666665
338,2017-08-21,33.57666666666666,,169.95374999999999
338,2017-08-22,32.06166666666666,,167.93708333333336
338,2017-08-23,39.19958333333333,,210.60583333333332
338,2017-08-24,41.02583333333333,,219.785
338,2017-08-25,33.248749999999994,,176.49583333333334
338,2017-08-26,41.63,,224.2375
338,2017-08-27,37.635416666666664,,194.10000000000005
338,2017-08-28,37.51458333333333,,201.82208333333335
338,2017-08-29,5.530833333333334,,29.075833333333332
338,2017-08-30,42.16166666666667,,226.38416666666666
338,2017-08-31,33.642916666666665,,178.41208333333336